Big Sky, USA 16 day weather forecast

Slopes altitude range 2070 m - 3400m

Number of lifts: 17 Pistes: 150km

In some cases the lift and piste totals shown are for the ski domain (e.g. Three Valleys) rather than individual resort (e.g. Courchevel)

Overview

The 16 day weather forecast is fully updated 4 times every day.

    • Wed 26 JUN 2019
    • Wed 26
    • 4C 5C
    • Thu 27 JUN 2019
    • Thu 27
    • 6C 8C
    • Fri 28 JUN 2019
    • Fri 28
    • 6C 8C
    • Sat 29 JUN 2019
    • Sat 29
    • 4C 5C
    • Sun 30 JUN 2019
    • Sun 30
    • 7C 8C
    • Mon 01 JUL 2019
    • Mon 01
    • 7C 8C
    • Tue 02 JUL 2019
    • Tue 02
    • 5C 7C
    • Wed 03 JUL 2019
    • Wed 03
    • 3C 5C
    • Thu 04 JUL 2019
    • Thu 04
    • 4C 6C
    • Fri 05 JUL 2019
    • Fri 05
    • 6C 8C
    • Sat 06 JUL 2019
    • Sat 06
    • 5C 7C
    • Sun 07 JUL 2019
    • Sun 07
    • 7C 10C
    • Mon 08 JUL 2019
    • Mon 08
    • 8C 10C
    • Tue 09 JUL 2019
    • Tue 09
    • 10C 12C
    • Wed 10 JUL 2019
    • Wed 10
    • 10C 12C
    • Thu 11 JUL 2019
    • Thu 11
    • 9C 11C

Date:

Time Type 0°C level Temp Chill Snow Cloud Speed Gust Dir Press
3:00 3861m 6°C 6_1 0cm 93% 1mph 2mph 1010mB
6:00 3986m 4°C 4_4 0cm 84% 4mph 5mph 1012mB
9:00 3953m 5°C 5_5 0cm 100% 5mph 6mph 1013mB
12:00 3934m 5°C 5_4 0cm 100% 4mph 5mph 1013mB
15:00 3997m 11°C 11_5 0cm 100% 5mph 7mph 1013mB
18:00 4023m 17°C 17_10 0cm 100% 10mph 20mph 1011mB
21:00 4086m 17°C 17_14 0cm 100% 14mph 22mph 1010mB
0:00 4125m 11°C 11_9 0cm 95% 9mph 13mph 1010mB
3:00 4109m 7°C 7_4 0cm 100% 4mph 5mph 1013mB
6:00 3905m 7°C 7_13 0cm 100% 13mph 22mph 1014mB
9:00 4164m 7°C 7_8 0cm 98% 8mph 9mph 1014mB
12:00 4101m 8°C 8_6 0cm 94% 6mph 7mph 1014mB
15:00 4133m 13°C 13_7 0cm 3% 7mph 11mph 1013mB
18:00 4072m 18°C 18_15 0cm 1% 15mph 25mph 1010mB
21:00 4044m 17°C 17_20 0cm 45% 20mph 33mph 1010mB
0:00 3996m 16°C 16_15 0cm 72% 15mph 29mph 1010mB
3:00 4104m 10°C 10_4 0cm 100% 4mph 5mph 1012mB
6:00 4051m 8°C 8_4 0cm 90% 4mph 5mph 1014mB
9:00 4070m 7°C 7_4 0cm 77% 4mph 5mph 1014mB
12:00 3980m 8°C 8_5 0cm 78% 5mph 6mph 1015mB
15:00 3949m 14°C 14_3 0cm 100% 3mph 4mph 1014mB
18:00 4057m 18°C 18_10 0cm 97% 10mph 24mph 1013mB
21:00 4091m 17°C 17_16 0cm 100% 16mph 31mph 1013mB
0:00 4072m 17°C 17_17 0cm 86% 17mph 32mph 1013mB
3:00 4186m 10°C 10_2 0cm 23% 2mph 3mph 1015mB
6:00 4273m 5°C 5_6 0cm 17% 6mph 10mph 1017mB
9:00 4040m 4°C 4_3 0cm 29% 3mph 4mph 1018mB
12:00 3876m 5°C 5_4 0cm 62% 4mph 4mph 1019mB
15:00 3775m 12°C 12_3 0cm 91% 3mph 3mph 1018mB
18:00 3833m 16°C 16_10 0cm 88% 10mph 20mph 1016mB
21:00 3948m 16°C 16_13 0cm 90% 13mph 21mph 1015mB
0:00 3888m 15°C 15_10 0cm 95% 10mph 16mph 1015mB
3:00 4032m 10°C 10_6 0cm 100% 6mph 7mph 1017mB
6:00 4052m 7°C 7_6 0cm 87% 6mph 7mph 1019mB
9:00 4002m 7°C 7_5 0cm 88% 5mph 6mph 1020mB
12:00 3929m 8°C 8_3 0cm 93% 3mph 4mph 1020mB
15:00 3666m 13°C 13_6 0cm 99% 6mph 7mph 1019mB
18:00 3925m 15°C 15_3 0cm 98% 3mph 4mph 1017mB
21:00 4158m 13°C 13_5 0cm 84% 5mph 8mph 1015mB
0:00 4187m 13°C 13_3 0cm 54% 3mph 6mph 1014mB
3:00 4196m 10°C 10_3 0cm 56% 3mph 4mph 1016mB
6:00 4200m 7°C 7_1 0cm 58% 1mph 2mph 1018mB
9:00 4106m 7°C 7_3 0cm 100% 3mph 4mph 1017mB
12:00 4151m 8°C 8_5 0cm 100% 5mph 6mph 1017mB
15:00 4173m 13°C 13_3 0cm 50% 3mph 5mph 1015mB
18:00 4119m 17°C 17_4 0cm 25% 4mph 7mph 1013mB
21:00 4177m 16°C 16_8 0cm 51% 8mph 16mph 1010mB
0:00 4229m 15°C 15_7 0cm 42% 7mph 14mph 1013mB
3:00 4143m 9°C 9_5 0cm 67% 5mph 6mph 1014mB
6:00 4059m 7°C 7_6 0cm 43% 6mph 7mph 1014mB
9:00 3901m 6°C 6_6 0cm 0% 6mph 7mph 1014mB
12:00 3836m 7°C 7_6 0cm 0% 6mph 7mph 1014mB
15:00 3694m 11°C 11_8 0cm 0% 8mph 10mph 1012mB
18:00 3675m 15°C 15_12 0cm 0% 12mph 19mph 1011mB
21:00 3779m 15°C 15_17 0cm 0% 17mph 23mph 1009mB
0:00 3832m 15°C 15_18 0cm 44% 18mph 23mph 1008mB
3:00 3851m 9°C 9_8 0cm 57% 8mph 23mph 1010mB
6:00 3686m 5°C 5_5 0cm 62% 5mph 6mph 1012mB
9:00 3550m 4°C 4_5 0cm 0% 5mph 6mph 1012mB
12:00 3543m 5°C 5_4 0cm 0% 4mph 5mph 1013mB
15:00 3563m 11°C 11_5 0cm 0% 5mph 8mph 1012mB
18:00 3747m 16°C 16_9 0cm 0% 9mph 16mph 1011mB
21:00 3900m 16°C 16_12 0cm 60% 12mph 15mph 1010mB
0:00 3887m 15°C 15_10 0cm 80% 10mph 13mph 1010mB
3:00 3865m 9°C 9_4 0cm 100% 4mph 9mph 1013mB
6:00 3896m 6°C 6_3 0cm 100% 3mph 4mph 1015mB
9:00 3898m 6°C 6_4 0cm 100% 4mph 5mph 1015mB
12:00 3882m 6°C 6_2 0cm 83% 2mph 3mph 1016mB
15:00 3887m 14°C 14_4 0cm 43% 4mph 9mph 1015mB
18:00 4037m 18°C 18_9 0cm 21% 9mph 16mph 1013mB
21:00 4160m 18°C 18_14 0cm 0% 14mph 17mph 1012mB
0:00 4140m 18°C 18_12 0cm 0% 12mph 16mph 1012mB
3:00 4177m 10°C 10_1 0cm 13% 1mph 2mph 1014mB
6:00 4178m 8°C 8_3 0cm 7% 3mph 3mph 1017mB
9:00 4164m 7°C 7_3 0cm 0% 3mph 4mph 1017mB
12:00 4182m 8°C 8_3 0cm 0% 3mph 4mph 1018mB
15:00 4188m 16°C 16_4 0cm 3% 4mph 9mph 1016mB
18:00 4258m 20°C 20_10 0cm 30% 10mph 17mph 1014mB
21:00 4389m 20°C 20_12 0cm 100% 12mph 18mph 1013mB
0:00 4398m 20°C 20_11 0cm 76% 11mph 15mph 1014mB
Afternoon 0mm 0 4188m 7°C 7_2 0cm 35% 2mph 3mph 1019mB
Morning 0.0416667mm 0.125 4336m 17°C 17_5 0cm 90% 5mph 11mph 1015mB
Afternoon 0mm 0 4291m 10°C 10_2 0cm 0% 2mph 3mph 1020mB
Morning 0mm 0 4542m 20°C 20_3 0cm 93% 3mph 8mph 1014mB
Afternoon 0mm 0 4683m 10°C 10_2 0cm 0% 2mph 3mph 1018mB
Morning 0mm 0 4832m 23°C 23_12 0cm 58% 12mph 13mph 1010mB
Afternoon 0mm 0 4805m 12°C 12_4 0cm 0% 4mph 5mph 1015mB
Morning 0mm 0 4816m 24°C 24_10 0cm 4% 10mph 13mph 1009mB
Afternoon 0mm 0 4660m 12°C 12_4 0cm 100% 4mph 5mph 1015mB
Morning 0mm 0 4670m 22°C 22_12 0cm 20% 12mph 17mph 1012mB
Afternoon 0mm 0 4637m 11°C 11_4 0cm 1% 4mph 5mph 1018mB
Morning 0.0208333mm 0.125 4691m 22°C 22_10 0cm 63% 10mph 18mph 1014mB

16 day outlook at a glance

Forecast issued: 6/26/2019 8:29:47 AM

Chat

Your comments and questions. In a resort? Let us know what it's like!


Characters left 250

For terms and conditions see Readers Comments on the Cookie and privacy policy page.